DEALR01 ETNL-ETNL

Flight info

Callsign DEALR01
Flight time 0h 33m
Altitude 5000
Route ETNL/27 OLUBI DCT PIBUL DCT ROSOK ETNL/27
Aircraft EUFI/M-SDGHITUY/LB1

Departure

Time 2026-05-04 18:08
Airport Rostock-Laage Airport (ETNL)

Arrival

Time 2026-05-04 18:42
Airport Rostock-Laage Airport (ETNL)
Time Latitude Longitude Altitude Speed Heading
2026-05-04 17:50 53.92286 12.26771 145 ft 0 kts 97°
2026-05-04 17:56 53.92285 12.26787 145 ft 4 kts 96°
2026-05-04 17:56 53.92273 12.26841 145 ft 5 kts 156°
2026-05-04 17:57 53.92235 12.26832 145 ft 7 kts 194°
2026-05-04 17:57 53.92201 12.26838 145 ft 12 kts 137°
2026-05-04 17:57 53.92189 12.26971 145 ft 12 kts 96°
2026-05-04 17:57 53.92179 12.27123 145 ft 14 kts 89°
2026-05-04 17:58 53.92179 12.27137 145 ft 0 kts 88°
2026-05-04 17:58 53.92175 12.27206 145 ft 15 kts 95°
2026-05-04 17:58 53.92160 12.27398 145 ft 13 kts 97°
2026-05-04 17:58 53.92145 12.27581 145 ft 18 kts 97°
2026-05-04 17:59 53.92128 12.27778 145 ft 16 kts 96°
2026-05-04 17:59 53.92116 12.27960 145 ft 16 kts 97°
2026-05-04 17:59 53.92086 12.28313 145 ft 18 kts 99°
2026-05-04 18:00 53.92071 12.28514 146 ft 17 kts 97°
2026-05-04 18:00 53.92056 12.28701 146 ft 15 kts 95°
2026-05-04 18:00 53.92035 12.28891 146 ft 17 kts 97°
2026-05-04 18:00 53.92021 12.29078 146 ft 15 kts 97°
2026-05-04 18:01 53.92010 12.29213 146 ft 8 kts 102°
2026-05-04 18:01 53.91958 12.29227 146 ft 9 kts 147°
2026-05-04 18:01 53.91939 12.29385 146 ft 18 kts 97°
2026-05-04 18:02 53.91911 12.29749 146 ft 8 kts 97°
2026-05-04 18:02 53.91915 12.29804 146 ft 3 kts 345°
2026-05-04 18:02 53.91937 12.29789 146 ft 3 kts 350°
2026-05-04 18:02 53.91950 12.29790 146 ft 2 kts 358°
2026-05-04 18:03 53.91952 12.29805 146 ft 5 kts 117°
2026-05-04 18:03 53.91949 12.29814 146 ft 0 kts 119°
2026-05-04 18:05 53.91948 12.29817 146 ft 3 kts 119°
2026-05-04 18:05 53.91922 12.29844 146 ft 5 kts 209°
2026-05-04 18:06 53.91803 12.29798 146 ft 11 kts 179°
2026-05-04 18:06 53.91760 12.29801 146 ft 0 kts 178°
2026-05-04 18:07 53.91717 12.29801 147 ft 6 kts 184°
2026-05-04 18:07 53.91674 12.29779 148 ft 9 kts 235°
2026-05-04 18:07 53.91668 12.29689 147 ft 0 kts 278°
2026-05-04 18:08 53.91690 12.29426 147 ft 88 kts 277°
2026-05-04 18:08 53.91840 12.27394 406 ft 218 kts 278°
2026-05-04 18:08 53.92458 12.24715 959 ft 278 kts 308°
2026-05-04 18:08 53.93907 12.22069 1435 ft 330 kts 314°
2026-05-04 18:09 53.96941 12.16790 1830 ft 307 kts 313°
2026-05-04 18:09 53.99906 12.11589 1890 ft 306 kts 312°
2026-05-04 18:10 54.01074 12.08656 2045 ft 294 kts 293°
2026-05-04 18:10 54.01566 12.05359 2129 ft 287 kts 272°
2026-05-04 18:10 54.01435 12.01859 2328 ft 309 kts 264°
2026-05-04 18:10 54.01185 11.98065 2563 ft 337 kts 263°
2026-05-04 18:11 54.00908 11.94037 2611 ft 349 kts 263°
2026-05-04 18:11 54.00500 11.89882 2415 ft 363 kts 260°
2026-05-04 18:11 54.00035 11.85604 2337 ft 372 kts 260°
2026-05-04 18:11 53.99538 11.81227 2317 ft 383 kts 259°
2026-05-04 18:12 53.99024 11.76821 2304 ft 363 kts 259°
2026-05-04 18:12 53.98546 11.72806 2276 ft 341 kts 259°
2026-05-04 18:12 53.98114 11.68946 2264 ft 323 kts 263°
2026-05-04 18:12 53.97957 11.65229 2251 ft 309 kts 268°
2026-05-04 18:13 53.97861 11.61664 2245 ft 295 kts 267°
2026-05-04 18:13 53.97780 11.58266 2244 ft 281 kts 268°
2026-05-04 18:13 53.97652 11.51967 2174 ft 251 kts 268°
2026-05-04 18:14 53.97579 11.49110 2127 ft 232 kts 268°
2026-05-04 18:14 53.97505 11.46452 2114 ft 229 kts 268°
2026-05-04 18:14 53.97611 11.43664 2137 ft 247 kts 283°
2026-05-04 18:15 53.99944 11.38899 1723 ft 314 kts 332°
2026-05-04 18:15 54.04159 11.36042 3078 ft 333 kts 337°
2026-05-04 18:15 54.06373 11.34588 4447 ft 346 kts 336°
2026-05-04 18:16 54.08642 11.33089 5988 ft 359 kts 335°
2026-05-04 18:16 54.11017 11.31505 7163 ft 373 kts 335°
2026-05-04 18:16 54.13477 11.29876 7927 ft 382 kts 343°
2026-05-04 18:17 54.13242 11.32530 7276 ft 260 kts 176°
2026-05-04 18:17 54.11046 11.33059 7361 ft 386 kts 170°
2026-05-04 18:17 54.12930 11.38490 7387 ft 451 kts 10°
2026-05-04 18:18 54.15880 11.39668 7272 ft 434 kts 16°
2026-05-04 18:18 54.18388 11.42304 7066 ft 417 kts 43°
2026-05-04 18:18 54.20114 11.46201 6966 ft 408 kts 55°
2026-05-04 18:18 54.21604 11.50253 7033 ft 379 kts 58°
2026-05-04 18:19 54.23397 11.55551 6960 ft 149 kts 58°
2026-05-04 18:19 54.24262 11.56503 6097 ft 174 kts
2026-05-04 18:19 54.25511 11.56825 6028 ft 198 kts
2026-05-04 18:20 54.26942 11.57259 6209 ft 199 kts 36°
2026-05-04 18:20 54.27772 11.58925 5816 ft 158 kts 33°
2026-05-04 18:20 54.28610 11.60396 3894 ft 176 kts 70°
2026-05-04 18:20 54.28941 11.62487 3572 ft 205 kts 76°
2026-05-04 18:21 54.29213 11.65270 3784 ft 263 kts 90°
2026-05-04 18:21 54.29113 11.68408 4085 ft 231 kts 94°
2026-05-04 18:21 54.29023 11.70655 4187 ft 164 kts 95°
2026-05-04 18:21 54.28956 11.72498 4206 ft 148 kts 94°
2026-05-04 18:22 54.28909 11.74191 4073 ft 137 kts 94°
2026-05-04 18:22 54.28858 11.76073 3555 ft 178 kts 93°
2026-05-04 18:22 54.28558 11.78175 3603 ft 197 kts 127°
2026-05-04 18:22 54.27371 11.79833 3626 ft 258 kts 163°
2026-05-04 18:23 54.25276 11.80176 3614 ft 356 kts 192°
2026-05-04 18:23 54.22785 11.78343 3697 ft 405 kts 220°
2026-05-04 18:23 54.20806 11.74895 3776 ft 413 kts 229°
2026-05-04 18:23 54.19189 11.70881 3886 ft 406 kts 245°
2026-05-04 18:24 54.18069 11.66422 3958 ft 415 kts 248°
2026-05-04 18:24 54.16949 11.61799 4045 ft 424 kts 248°
2026-05-04 18:24 54.15826 11.57166 4049 ft 419 kts 248°
2026-05-04 18:24 54.14718 11.52602 4033 ft 415 kts 248°
2026-05-04 18:25 54.14088 11.47812 4073 ft 424 kts 271°
2026-05-04 18:25 54.14739 11.42846 4043 ft 439 kts 291°
2026-05-04 18:25 54.16248 11.38515 3993 ft 413 kts 309°
2026-05-04 18:25 54.18376 11.35394 3871 ft 405 kts 327°
2026-05-04 18:26 54.21020 11.33711 3551 ft 427 kts 354°
2026-05-04 18:26 54.24000 11.34796 3407 ft 456 kts 26°
2026-05-04 18:26 54.26495 11.38080 3370 ft 447 kts 45°
2026-05-04 18:26 54.28188 11.42428 3225 ft 437 kts 66°
2026-05-04 18:27 54.28844 11.47583 3107 ft 455 kts 83°
2026-05-04 18:27 54.29196 11.52880 3035 ft 422 kts 84°
2026-05-04 18:27 54.29495 11.57599 3011 ft 381 kts 84°
2026-05-04 18:27 54.29776 11.61944 2907 ft 352 kts 83°
2026-05-04 18:28 54.30060 11.66169 2959 ft 394 kts 83°
2026-05-04 18:28 54.30305 11.70777 2982 ft 386 kts 89°
2026-05-04 18:28 54.30034 11.75281 2990 ft 382 kts 106°
2026-05-04 18:28 54.29196 11.79583 2996 ft 382 kts 111°
2026-05-04 18:29 54.28212 11.83804 3004 ft 380 kts 113°
2026-05-04 18:29 54.27180 11.87982 2997 ft 380 kts 114°
2026-05-04 18:29 54.26145 11.92077 2548 ft 376 kts 114°
2026-05-04 18:29 54.25103 11.96176 2289 ft 374 kts 115°
2026-05-04 18:30 54.23018 12.04327 2121 ft 374 kts 115°
2026-05-04 18:30 54.21974 12.08400 2099 ft 375 kts 115°
2026-05-04 18:30 54.20938 12.12329 2095 ft 338 kts 120°
2026-05-04 18:31 54.19769 12.15430 2088 ft 286 kts 129°
2026-05-04 18:31 54.18574 12.17936 2067 ft 259 kts 132°
2026-05-04 18:31 54.17474 12.20175 2023 ft 231 kts 133°
2026-05-04 18:31 54.16351 12.22251 2041 ft 246 kts 141°
2026-05-04 18:32 54.14959 12.24171 2116 ft 271 kts 145°
2026-05-04 18:32 54.13393 12.26295 2152 ft 306 kts 142°
2026-05-04 18:32 54.11724 12.28647 2117 ft 316 kts 142°
2026-05-04 18:32 54.10083 12.31197 2089 ft 323 kts 136°
2026-05-04 18:33 54.08472 12.33931 2082 ft 330 kts 136°
2026-05-04 18:33 54.06917 12.36864 2052 ft 337 kts 129°
2026-05-04 18:33 54.05535 12.40141 1961 ft 345 kts 118°
2026-05-04 18:33 54.04561 12.43889 1948 ft 349 kts 111°
2026-05-04 18:34 54.03762 12.47773 1944 ft 334 kts 108°
2026-05-04 18:34 54.03113 12.51288 1929 ft 317 kts 109°
2026-05-04 18:34 54.02110 12.54797 2049 ft 341 kts 121°
2026-05-04 18:34 54.00372 12.57434 2244 ft 340 kts 172°
2026-05-04 18:35 53.98115 12.56349 2301 ft 364 kts 214°
2026-05-04 18:35 53.96077 12.53567 2297 ft 386 kts 222°
2026-05-04 18:35 53.94008 12.50540 2034 ft 396 kts 223°
2026-05-04 18:35 53.91986 12.47584 1839 ft 372 kts 224°
2026-05-04 18:36 53.90544 12.44175 1793 ft 348 kts 255°
2026-05-04 18:36 53.90720 12.40135 1654 ft 354 kts 284°
2026-05-04 18:36 53.91127 12.36084 1672 ft 343 kts 277°
2026-05-04 18:36 53.91450 12.32071 1702 ft 346 kts 278°
2026-05-04 18:37 53.91765 12.28003 1694 ft 341 kts 266°
2026-05-04 18:37 53.90541 12.26447 1542 ft 181 kts 132°
2026-05-04 18:37 53.90056 12.28234 1234 ft 177 kts 105°
2026-05-04 18:37 53.89696 12.30293 1197 ft 188 kts 110°
2026-05-04 18:38 53.89686 12.32358 1084 ft 171 kts 47°
2026-05-04 18:38 53.90647 12.33061 1077 ft 148 kts 333°
2026-05-04 18:38 53.91447 12.31879 570 ft 156 kts 286°
2026-05-04 18:38 53.91626 12.30102 170 ft 140 kts 279°
2026-05-04 18:39 53.91757 12.28643 145 ft 111 kts 278°
2026-05-04 18:39 53.91928 12.26654 622 ft 223 kts 280°
2026-05-04 18:39 53.92000 12.23710 1057 ft 255 kts 238°
2026-05-04 18:39 53.90642 12.23295 1153 ft 199 kts 129°
2026-05-04 18:40 53.89966 12.25404 1088 ft 193 kts 114°
2026-05-04 18:40 53.89586 12.27257 848 ft 164 kts 102°
2026-05-04 18:40 53.89374 12.29421 1042 ft 210 kts 97°
2026-05-04 18:40 53.89562 12.31695 1114 ft 185 kts 44°
2026-05-04 18:41 53.90616 12.32444 995 ft 169 kts 347°
2026-05-04 18:41 53.91480 12.31358 602 ft 167 kts 288°
2026-05-04 18:41 53.91686 12.29428 151 ft 161 kts 278°
2026-05-04 18:41 53.91806 12.27969 147 ft 98 kts 278°
2026-05-04 18:42 53.91880 12.27049 145 ft 53 kts 277°
2026-05-04 18:42 53.91922 12.26512 146 ft 40 kts 278°
2026-05-04 18:42 53.91953 12.26139 144 ft 15 kts 281°
2026-05-04 18:42 53.92006 12.26088 144 ft 10 kts 25°
2026-05-04 18:43 53.92074 12.26146 145 ft 12 kts 26°
2026-05-04 18:43 53.92160 12.26222 145 ft 15 kts 26°
2026-05-04 18:43 53.92236 12.26305 145 ft 12 kts 67°
2026-05-04 18:43 53.92231 12.26437 145 ft 11 kts 98°
2026-05-04 18:44 53.92224 12.26559 145 ft 7 kts 70°
2026-05-04 18:44 53.92235 12.26576 145 ft 7 kts 21°
2026-05-04 18:44 53.92264 12.26595 145 ft 0 kts 97°